DAL902 KSLC-KSFO

Flight info

Callsign DAL902
Flight time 1h 5m
Altitude 34000
Route DEZRT2 BAM LLC LEGGS BDEGA4
Aircraft B739/M-SDE2E3FGHIRWXY/LB1

Departure

Time 2026-05-05 03:00
Airport Salt Lake City International Airport (KSLC)

Arrival

Time 2026-05-05 04:05
Airport San Francisco International Airport (KSFO)
Time Latitude Longitude Altitude Speed Heading
2026-05-05 02:46 40.78607 -111.98885 4230 ft 0 kts 175°
2026-05-05 02:48 40.78624 -111.98887 4229 ft 4 kts 175°
2026-05-05 02:48 40.78645 -111.98889 4229 ft 4 kts 165°
2026-05-05 02:48 40.78664 -111.98906 4230 ft 2 kts 130°
2026-05-05 02:48 40.78678 -111.98929 4230 ft 2 kts 130°
2026-05-05 02:49 40.78680 -111.98931 4230 ft 0 kts 130°
2026-05-05 02:52 40.78676 -111.98917 4230 ft 4 kts 104°
2026-05-05 02:52 40.78679 -111.98883 4230 ft 8 kts 81°
2026-05-05 02:52 40.78686 -111.98790 4230 ft 13 kts 86°
2026-05-05 02:53 40.78694 -111.98661 4230 ft 14 kts 84°
2026-05-05 02:53 40.78702 -111.98534 4230 ft 14 kts 85°
2026-05-05 02:53 40.78710 -111.98413 4230 ft 13 kts 85°
2026-05-05 02:53 40.78721 -111.98258 4230 ft 13 kts 85°
2026-05-05 02:54 40.78726 -111.98181 4230 ft 12 kts 85°
2026-05-05 02:54 40.78733 -111.98071 4230 ft 12 kts 85°
2026-05-05 02:54 40.78742 -111.97962 4230 ft 12 kts 84°
2026-05-05 02:54 40.78750 -111.97833 4230 ft 16 kts 79°
2026-05-05 02:55 40.78841 -111.97789 4230 ft 16 kts 353°
2026-05-05 02:55 40.78974 -111.97804 4230 ft 23 kts 356°
2026-05-05 02:55 40.79142 -111.97825 4230 ft 24 kts 356°
2026-05-05 02:55 40.79302 -111.97841 4230 ft 23 kts 354°
2026-05-05 02:56 40.79457 -111.97861 4230 ft 22 kts 354°
2026-05-05 02:56 40.79608 -111.97878 4230 ft 21 kts 355°
2026-05-05 02:56 40.79760 -111.97894 4230 ft 23 kts 355°
2026-05-05 02:56 40.79924 -111.97913 4230 ft 24 kts 355°
2026-05-05 02:57 40.80098 -111.97934 4230 ft 25 kts 355°
2026-05-05 02:57 40.80266 -111.97956 4230 ft 23 kts 347°
2026-05-05 02:57 40.80422 -111.97998 4230 ft 23 kts 355°
2026-05-05 02:57 40.80575 -111.98023 4230 ft 22 kts 347°
2026-05-05 02:58 40.80713 -111.98047 4230 ft 15 kts 27°
2026-05-05 02:58 40.80739 -111.97933 4230 ft 13 kts 86°
2026-05-05 02:58 40.80745 -111.97815 4229 ft 13 kts 86°
2026-05-05 02:58 40.80718 -111.97710 4228 ft 12 kts 128°
2026-05-05 02:59 40.80639 -111.97674 4229 ft 14 kts 175°
2026-05-05 02:59 40.80351 -111.97651 4231 ft 73 kts 176°
2026-05-05 02:59 40.79643 -111.97570 4228 ft 129 kts 175°
2026-05-05 02:59 40.78594 -111.97438 4231 ft 172 kts 173°
2026-05-05 03:00 40.77375 -111.97270 4768 ft 168 kts 173°
2026-05-05 03:00 40.76202 -111.97153 5317 ft 177 kts 175°
2026-05-05 03:00 40.74935 -111.97410 5692 ft 192 kts 205°
2026-05-05 03:00 40.73959 -111.98683 6075 ft 208 kts 245°
2026-05-05 03:01 40.73725 -112.00568 6559 ft 215 kts 279°
2026-05-05 03:01 40.74144 -112.02464 7015 ft 214 kts 290°
2026-05-05 03:01 40.74717 -112.04370 7209 ft 234 kts 292°
2026-05-05 03:01 40.75386 -112.06433 7387 ft 253 kts 292°
2026-05-05 03:02 40.76110 -112.08650 7556 ft 276 kts 292°
2026-05-05 03:02 40.76887 -112.11047 7990 ft 289 kts 292°
2026-05-05 03:02 40.77677 -112.13493 8742 ft 291 kts 291°
2026-05-05 03:02 40.78454 -112.15921 9540 ft 292 kts 290°
2026-05-05 03:03 40.79245 -112.18407 10233 ft 296 kts 291°
2026-05-05 03:03 40.80064 -112.20994 10487 ft 317 kts 291°
2026-05-05 03:03 40.80941 -112.23775 10660 ft 339 kts 290°
2026-05-05 03:03 40.81873 -112.26729 10897 ft 356 kts 291°
2026-05-05 03:04 40.82835 -112.29779 11439 ft 361 kts 291°
2026-05-05 03:04 40.83807 -112.32856 12127 ft 363 kts 292°
2026-05-05 03:04 40.84776 -112.35939 12805 ft 365 kts 292°
2026-05-05 03:04 40.85753 -112.39051 13456 ft 368 kts 292°
2026-05-05 03:05 40.86601 -112.42239 14050 ft 370 kts 283°
2026-05-05 03:05 40.86983 -112.45572 14606 ft 373 kts 273°
2026-05-05 03:05 40.86916 -112.49037 15045 ft 382 kts 264°
2026-05-05 03:05 40.86640 -112.52547 15587 ft 385 kts 264°
2026-05-05 03:06 40.86371 -112.56075 16201 ft 387 kts 264°
2026-05-05 03:06 40.85245 -112.70314 18290 ft 402 kts 264°
2026-05-05 03:06 40.84065 -112.85224 20205 ft 414 kts 266°
2026-05-05 03:06 40.84086 -113.00673 22031 ft 427 kts 271°
2026-05-05 03:07 40.84279 -113.16552 23688 ft 440 kts 270°
2026-05-05 03:07 40.84281 -113.32943 25074 ft 451 kts 270°
2026-05-05 03:07 40.84261 -113.49501 26406 ft 462 kts 270°
2026-05-05 03:07 40.84228 -113.66707 27687 ft 472 kts 270°
2026-05-05 03:08 40.84165 -113.84240 28844 ft 484 kts 270°
2026-05-05 03:08 40.84059 -114.02073 30285 ft 484 kts 270°
2026-05-05 03:08 40.83919 -114.19710 31837 ft 477 kts 270°
2026-05-05 03:08 40.83780 -114.35667 33437 ft 463 kts 270°
2026-05-05 03:09 40.83693 -114.44079 33785 ft 455 kts 270°
2026-05-05 03:09 40.83334 -114.74821 33815 ft 460 kts 268°
2026-05-05 03:10 40.79481 -115.08701 33781 ft 471 kts 262°
2026-05-05 03:10 40.75535 -115.42933 33782 ft 472 kts 262°
2026-05-05 03:11 40.71431 -115.77187 33798 ft 474 kts 262°
2026-05-05 03:11 40.67239 -116.11371 33811 ft 477 kts 262°
2026-05-05 03:11 40.65071 -116.28718 34405 ft 480 kts 262°
2026-05-05 03:12 40.62894 -116.45918 35616 ft 469 kts 261°
2026-05-05 03:12 40.61785 -116.54585 35840 ft 466 kts 261°
2026-05-05 03:12 40.60700 -116.62994 35832 ft 465 kts 261°
2026-05-05 03:13 40.56713 -116.93375 35827 ft 462 kts 257°
2026-05-05 03:13 40.48136 -117.25654 35850 ft 477 kts 251°
2026-05-05 03:14 40.39365 -117.58930 35800 ft 482 kts 251°
2026-05-05 03:14 40.35841 -117.72112 35815 ft 476 kts 251°
2026-05-05 03:15 40.33667 -117.80185 35818 ft 469 kts 251°
2026-05-05 03:15 40.31496 -117.88255 35828 ft 466 kts 251°
2026-05-05 03:16 40.29337 -117.96263 35846 ft 472 kts 251°
2026-05-05 03:16 40.27134 -118.04405 35840 ft 476 kts 250°
2026-05-05 03:17 40.24909 -118.12593 35841 ft 478 kts 250°
2026-05-05 03:17 40.22669 -118.20810 35842 ft 479 kts 250°
2026-05-05 03:18 40.20422 -118.29028 35845 ft 480 kts 250°
2026-05-05 03:18 40.18167 -118.37248 35854 ft 480 kts 250°
2026-05-05 03:19 40.14781 -118.49546 35855 ft 478 kts 250°
2026-05-05 03:19 40.12526 -118.57706 35859 ft 477 kts 250°
2026-05-05 03:20 40.10266 -118.65850 35854 ft 476 kts 250°
2026-05-05 03:20 40.07864 -118.73917 35845 ft 476 kts 248°
2026-05-05 03:21 40.05412 -118.81883 35861 ft 475 kts 248°
2026-05-05 03:21 40.02960 -118.89893 35845 ft 475 kts 249°
2026-05-05 03:22 40.00522 -118.97908 35831 ft 476 kts 249°
2026-05-05 03:22 39.98076 -119.05949 35814 ft 477 kts 249°
2026-05-05 03:23 39.95616 -119.14017 35811 ft 479 kts 249°
2026-05-05 03:23 39.93138 -119.22114 35810 ft 481 kts 248°
2026-05-05 03:24 39.90647 -119.30228 35817 ft 483 kts 248°
2026-05-05 03:24 39.88140 -119.38369 35833 ft 485 kts 248°
2026-05-05 03:25 39.85633 -119.46482 35828 ft 485 kts 248°
2026-05-05 03:25 39.83109 -119.54631 35880 ft 486 kts 248°
2026-05-05 03:26 39.80580 -119.62769 35907 ft 486 kts 248°
2026-05-05 03:26 39.78035 -119.70934 35932 ft 486 kts 248°
2026-05-05 03:27 39.75489 -119.79081 35960 ft 486 kts 248°
2026-05-05 03:27 39.72937 -119.87219 35958 ft 486 kts 248°
2026-05-05 03:28 39.70381 -119.95348 35965 ft 486 kts 248°
2026-05-05 03:28 39.67819 -120.03471 35916 ft 486 kts 248°
2026-05-05 03:29 39.65251 -120.11590 35940 ft 486 kts 248°
2026-05-05 03:29 39.62689 -120.19666 35963 ft 486 kts 248°
2026-05-05 03:30 39.60108 -120.27778 35963 ft 487 kts 248°
2026-05-05 03:30 39.57517 -120.35898 35983 ft 487 kts 248°
2026-05-05 03:31 39.54921 -120.44010 35998 ft 488 kts 248°
2026-05-05 03:31 39.52313 -120.52136 36016 ft 488 kts 248°
2026-05-05 03:32 39.49717 -120.60199 36021 ft 489 kts 248°
2026-05-05 03:32 39.47094 -120.68325 36029 ft 489 kts 248°
2026-05-05 03:33 39.44461 -120.76456 36034 ft 490 kts 248°
2026-05-05 03:33 39.41823 -120.84583 36037 ft 490 kts 248°
2026-05-05 03:34 39.39175 -120.92716 36042 ft 491 kts 248°
2026-05-05 03:34 39.36521 -121.00846 36051 ft 490 kts 248°
2026-05-05 03:35 39.33856 -121.08948 36039 ft 490 kts 245°
2026-05-05 03:35 39.32137 -121.12745 36048 ft 488 kts 234°
2026-05-05 03:35 39.30117 -121.16273 36048 ft 488 kts 232°
2026-05-05 03:36 39.25937 -121.23156 36049 ft 487 kts 231°
2026-05-05 03:36 39.21808 -121.30024 36050 ft 486 kts 232°
2026-05-05 03:37 39.17719 -121.36982 36041 ft 486 kts 233°
2026-05-05 03:37 39.13663 -121.43931 36045 ft 485 kts 233°
2026-05-05 03:38 39.09611 -121.50866 36074 ft 484 kts 233°
2026-05-05 03:38 39.06212 -121.56665 36061 ft 485 kts 233°
2026-05-05 03:39 39.02146 -121.63587 36068 ft 485 kts 233°
2026-05-05 03:39 38.98424 -121.69906 36055 ft 486 kts 233°
2026-05-05 03:40 38.94339 -121.76828 36040 ft 487 kts 233°
2026-05-05 03:40 38.90259 -121.83727 36013 ft 488 kts 233°
2026-05-05 03:41 38.88194 -121.87215 35719 ft 495 kts 233°
2026-05-05 03:41 38.86085 -121.90771 35017 ft 503 kts 233°
2026-05-05 03:41 38.83964 -121.94344 34315 ft 504 kts 232°
2026-05-05 03:41 38.81834 -121.97931 33454 ft 507 kts 232°
2026-05-05 03:42 38.79702 -122.01517 32875 ft 503 kts 232°
2026-05-05 03:42 38.77587 -122.05068 32315 ft 499 kts 232°
2026-05-05 03:42 38.75467 -122.08559 31754 ft 495 kts 228°
2026-05-05 03:42 38.73142 -122.11804 31153 ft 491 kts 224°
2026-05-05 03:43 38.70744 -122.14893 30656 ft 487 kts 222°
2026-05-05 03:43 38.68337 -122.17916 30130 ft 484 kts 222°
2026-05-05 03:43 38.65940 -122.20924 29535 ft 480 kts 222°
2026-05-05 03:43 38.63601 -122.23888 28985 ft 476 kts 223°
2026-05-05 03:44 38.61278 -122.26862 28476 ft 471 kts 223°
2026-05-05 03:44 38.58982 -122.29820 27970 ft 467 kts 223°
2026-05-05 03:44 38.56708 -122.32761 27448 ft 463 kts 224°
2026-05-05 03:44 38.54457 -122.35674 26973 ft 458 kts 224°
2026-05-05 03:45 38.52223 -122.38564 26472 ft 455 kts 224°
2026-05-05 03:45 38.50004 -122.41429 25983 ft 452 kts 224°
2026-05-05 03:45 38.47797 -122.44274 25506 ft 448 kts 224°
2026-05-05 03:45 38.45612 -122.47088 25034 ft 445 kts 224°
2026-05-05 03:46 38.43435 -122.49887 24553 ft 443 kts 224°
2026-05-05 03:46 38.41273 -122.52666 24150 ft 438 kts 224°
2026-05-05 03:46 38.39184 -122.55350 24061 ft 425 kts 224°
2026-05-05 03:46 38.37074 -122.57967 24021 ft 412 kts 217°
2026-05-05 03:47 38.34717 -122.59776 24013 ft 392 kts 196°
2026-05-05 03:47 38.32142 -122.60495 23890 ft 370 kts 175°
2026-05-05 03:47 38.29653 -122.60134 23545 ft 354 kts 158°
2026-05-05 03:47 38.27311 -122.59236 23030 ft 352 kts 154°
2026-05-05 03:48 38.24947 -122.58204 21934 ft 369 kts 153°
2026-05-05 03:48 38.22558 -122.57117 21776 ft 362 kts 153°
2026-05-05 03:48 38.20164 -122.56017 21151 ft 369 kts 153°
2026-05-05 03:48 38.17734 -122.54887 20540 ft 374 kts 153°
2026-05-05 03:49 38.15289 -122.53746 19987 ft 375 kts 153°
2026-05-05 03:49 38.12839 -122.52598 19526 ft 374 kts 153°
2026-05-05 03:49 38.10415 -122.51455 19143 ft 370 kts 153°
2026-05-05 03:49 38.08017 -122.50316 18760 ft 366 kts 153°
2026-05-05 03:50 38.05643 -122.49180 18360 ft 364 kts 153°
2026-05-05 03:50 38.03282 -122.48040 17896 ft 361 kts 153°
2026-05-05 03:50 38.00943 -122.46902 17427 ft 359 kts 153°
2026-05-05 03:50 37.98619 -122.45762 16970 ft 357 kts 153°
2026-05-05 03:51 37.96310 -122.44619 16531 ft 355 kts 153°
2026-05-05 03:51 37.94019 -122.43476 16094 ft 353 kts 153°
2026-05-05 03:51 37.91738 -122.42328 15662 ft 351 kts 153°
2026-05-05 03:51 37.89476 -122.41181 15250 ft 349 kts 153°
2026-05-05 03:52 37.87226 -122.40030 14822 ft 348 kts 153°
2026-05-05 03:52 37.84992 -122.38878 14409 ft 346 kts 153°
2026-05-05 03:52 37.82770 -122.37715 13997 ft 345 kts 153°
2026-05-05 03:52 37.80563 -122.36537 13551 ft 343 kts 153°
2026-05-05 03:53 37.78373 -122.35355 13140 ft 341 kts 153°
2026-05-05 03:53 37.76213 -122.34171 12780 ft 337 kts 154°
2026-05-05 03:53 37.74090 -122.32967 12371 ft 334 kts 153°
2026-05-05 03:53 37.72196 -122.31365 11844 ft 331 kts 132°
2026-05-05 03:54 37.70781 -122.29154 11775 ft 315 kts 123°
2026-05-05 03:54 37.69530 -122.26943 11639 ft 305 kts 123°
2026-05-05 03:54 37.68317 -122.24812 11445 ft 294 kts 123°
2026-05-05 03:54 37.67120 -122.22733 11086 ft 290 kts 124°
2026-05-05 03:55 37.65894 -122.20720 10533 ft 293 kts 123°
2026-05-05 03:55 37.64702 -122.18633 10278 ft 288 kts 125°
2026-05-05 03:55 37.63493 -122.16658 9864 ft 289 kts 122°
2026-05-05 03:55 37.62389 -122.14539 9584 ft 286 kts 119°
2026-05-05 03:56 37.61336 -122.12434 9296 ft 280 kts 121°
2026-05-05 03:56 37.60265 -122.10391 8913 ft 276 kts 122°
2026-05-05 03:56 37.59172 -122.08445 8647 ft 268 kts 124°
2026-05-05 03:56 37.58104 -122.06567 8529 ft 255 kts 126°
2026-05-05 03:57 37.57062 -122.04826 8278 ft 248 kts 126°
2026-05-05 03:57 37.56166 -122.02952 7840 ft 249 kts 119°
2026-05-05 03:57 37.55284 -122.01053 7353 ft 254 kts 122°
2026-05-05 03:57 37.54331 -121.99257 7005 ft 251 kts 136°
2026-05-05 03:58 37.52818 -121.98244 6569 ft 252 kts 170°
2026-05-05 03:58 37.51089 -121.98363 6204 ft 253 kts 199°
2026-05-05 03:58 37.49585 -121.99499 5857 ft 253 kts 220°
2026-05-05 03:58 37.48281 -122.00973 5546 ft 251 kts 222°
2026-05-05 03:59 37.47251 -122.02683 5205 ft 252 kts 250°
2026-05-05 03:59 37.47272 -122.04856 5143 ft 248 kts 291°
2026-05-05 03:59 37.48217 -122.06687 5147 ft 254 kts 306°
2026-05-05 03:59 37.49255 -122.08446 5108 ft 245 kts 305°
2026-05-05 04:00 37.50200 -122.10179 5097 ft 234 kts 303°
2026-05-05 04:00 37.51106 -122.11844 5113 ft 229 kts 303°
2026-05-05 04:00 37.51994 -122.13479 4899 ft 225 kts 300°
2026-05-05 04:00 37.52775 -122.15143 4622 ft 220 kts 297°
2026-05-05 04:01 37.53485 -122.16814 4375 ft 211 kts 296°
2026-05-05 04:01 37.54153 -122.18418 3946 ft 209 kts 296°
2026-05-05 04:01 37.54835 -122.20062 3398 ft 211 kts 296°
2026-05-05 04:01 37.55510 -122.21686 2831 ft 206 kts 296°
2026-05-05 04:02 37.56166 -122.23260 2307 ft 197 kts 296°
2026-05-05 04:02 37.56779 -122.24732 2026 ft 183 kts 296°
2026-05-05 04:02 37.57348 -122.26098 1777 ft 168 kts 297°
2026-05-05 04:02 37.57856 -122.27317 1546 ft 152 kts 297°
2026-05-05 04:03 37.58320 -122.28432 1353 ft 135 kts 297°
2026-05-05 04:03 37.58762 -122.29492 1189 ft 142 kts 296°
2026-05-05 04:03 37.59236 -122.30624 989 ft 147 kts 297°
2026-05-05 04:03 37.59696 -122.31753 837 ft 142 kts 296°
2026-05-05 04:04 37.60142 -122.32841 584 ft 137 kts 298°
2026-05-05 04:04 37.60566 -122.33865 389 ft 134 kts 300°
2026-05-05 04:04 37.61009 -122.34895 227 ft 133 kts 299°
2026-05-05 04:04 37.61438 -122.35927 46 ft 132 kts 299°
2026-05-05 04:05 37.61837 -122.36858 22 ft 104 kts 298°
2026-05-05 04:05 37.62100 -122.37487 23 ft 53 kts 297°
2026-05-05 04:05 37.62147 -122.37614 21 ft 6 kts 279°
2026-05-05 04:05 37.62142 -122.37667 21 ft 6 kts 252°
2026-05-05 04:06 37.62120 -122.37713 21 ft 6 kts 233°
2026-05-05 04:06 37.62083 -122.37769 23 ft 14 kts 230°
2026-05-05 04:06 37.61989 -122.37905 22 ft 21 kts 229°
2026-05-05 04:06 37.61880 -122.37918 21 ft 17 kts 150°
2026-05-05 04:07 37.61810 -122.37808 22 ft 16 kts 112°
2026-05-05 04:07 37.61770 -122.37677 22 ft 16 kts 111°
2026-05-05 04:07 37.61733 -122.37555 21 ft 12 kts 111°
2026-05-05 04:07 37.61723 -122.37525 21 ft 0 kts 113°
2026-05-05 04:09 37.61723 -122.37524 21 ft 1 kts 113°
2026-05-05 04:09 37.61703 -122.37472 23 ft 12 kts 122°
2026-05-05 04:09 37.61625 -122.37452 22 ft 12 kts 199°
2026-05-05 04:09 37.61549 -122.37499 24 ft 12 kts 208°
2026-05-05 04:10 37.61466 -122.37556 22 ft 16 kts 208°
2026-05-05 04:10 37.61356 -122.37631 21 ft 19 kts 210°
2026-05-05 04:10 37.61293 -122.37764 21 ft 18 kts 264°
2026-05-05 04:10 37.61329 -122.37909 22 ft 17 kts 298°
2026-05-05 04:11 37.61386 -122.38041 22 ft 17 kts 298°
2026-05-05 04:11 37.61375 -122.38159 23 ft 15 kts 206°
2026-05-05 04:11 37.61361 -122.38255 22 ft 13 kts 297°
2026-05-05 04:11 37.61397 -122.38340 23 ft 8 kts 303°
2026-05-05 04:12 37.61433 -122.38341 21 ft 3 kts 39°
2026-05-05 04:12 37.61447 -122.38329 21 ft 1 kts 32°
2026-05-05 04:12 37.61455 -122.38323 21 ft 1 kts 29°
2026-05-05 04:12 37.61457 -122.38322 21 ft 0 kts 29°